EW9663 Weather Reports


time (UTC)temp
C
wind
direction
speed
KPH
gust
KPH
rain 1hr
cm
rain 24hr
cm
rain mn
cm
humidity
%
barometer
mb
20180424154927 17 340 19.3 33.8 0.00 0.00 0.00 80 1015.9
20180424153422 17 309 22.5 37.0 0.00 0.00 0.00 80 1015.5
20180424151923 17 316 25.7 37.0 0.00 0.00 0.00 78 1015.5
20180424150421 17 321 24.1 37.0 0.00 0.00 0.00 77 1015.7
20180424144919 17 319 22.5 35.4 0.00 0.00 0.00 78 1015.8
20180424143418 17 310 20.9 35.4 0.00 0.00 0.00 78 1016.0
20180424141917 17 322 12.9 33.8 0.00 0.00 0.00 78 1016.0
20180424140420 18 317 20.9 33.8 0.00 0.00 0.00 78 1016.0
20180424134916 18 360 24.1 32.2 0.00 0.00 0.00 76 1016.1
20180424133415 18 292 17.7 29.0 0.00 0.00 0.00 78 1016.1
20180424131914 18 321 16.1 30.6 0.00 0.00 0.00 78 1016.1
20180424130414 18 315 17.7 25.7 0.00 0.00 0.00 77 1016.2
20180424124912 18 319 16.1 27.4 0.00 0.00 0.00 76 1016.1
20180424123411 18 325 14.5 24.1 0.00 0.00 0.00 78 1016.0
20180424121911 17 297 17.7 29.0 0.00 0.00 0.00 79 1016.1
20180424120407 18 330 16.1 22.5 0.00 0.00 0.00 77 1016.2
20180424114902 18 311 17.7 24.1 0.00 0.00 0.00 76 1016.4
20180424113401 18 296 16.1 24.1 0.00 0.00 0.00 77 1016.5
20180424111858 18 337 16.1 24.1 0.00 0.00 0.00 77 1016.7
20180424110351 18 310 17.7 22.5 0.00 0.00 0.00 77 1016.8
20180424104847 18 327 8.0 24.1 0.00 0.00 0.00 80 1016.6
20180424103345 17 315 8.0 19.3 0.00 0.00 0.00 81 1016.8
20180424101842 18 271 3.2 12.9 0.00 0.00 0.00 81 1016.8
20180424100336 17 330 4.8 14.5 0.00 0.00 0.00 82 1016.9
20180424094832 17 268 3.2 9.7 0.00 0.00 0.00 84 1017.0
20180424093330 17 275 6.4 12.9 0.00 0.00 0.00 86 1017.0
20180424091823 16 318 4.8 11.3 0.00 0.00 0.00 88 1016.9
20180424090320 16 298 4.8 11.3 0.00 0.00 0.00 91 1016.9
20180424084818 16 305 0.0 8.0 0.00 0.00 0.00 92 1016.9
20180424083313 15 306 0.0 0.0 0.00 0.00 0.00 93 1016.8
20180424081813 15 300 0.0 3.2 0.00 0.00 0.00 94 1016.7
20180424080307 15 300 3.2 8.0 0.00 0.00 0.00 94 1016.7
20180424074805 14 275 0.0 0.0 0.00 0.00 0.00 94 1016.7
20180424073305 13 275 0.0 0.0 0.00 0.00 0.00 94 1016.7
20180424071800 13 128 0.0 0.0 0.00 0.00 0.00 94 1016.4
20180424070256 13 128 0.0 0.0 0.00 0.00 0.00 94 1016.4
20180424064751 12 128 0.0 0.0 0.00 0.00 0.00 94 1016.3
20180424063246 12 128 0.0 0.0 0.00 0.00 0.00 94 1016.3
20180424061744 12 124 0.0 0.0 0.00 0.00 0.00 94 1016.2
20180424060242 12 344 0.0 0.0 0.00 0.00 0.00 93 1016.0
20180424054737 12 344 0.0 0.0 0.00 0.00 0.00 93 1016.0
20180424053236 12 344 0.0 0.0 0.00 0.00 0.00 93 1015.8
20180424051733 12 344 0.0 0.0 0.00 0.00 0.00 93 1015.7
20180424050232 12 344 0.0 0.0 0.00 0.00 0.00 93 1015.6
20180424044730 12 344 0.0 0.0 0.00 0.00 0.00 93 1015.6
20180424043232 12 344 0.0 0.0 0.00 0.00 0.00 93 1015.5
20180424041729 13 344 0.0 0.0 0.00 0.00 0.00 93 1015.4
20180424040228 13 344 0.0 0.0 0.00 0.00 0.00 93 1015.4
20180424034728 13 344 0.0 0.0 0.00 0.00 0.00 93 1015.3
20180424033228 13 344 0.0 0.0 0.00 0.00 0.00 93 1015.5
20180424031726 13 344 0.0 0.0 0.00 0.00 0.00 93 1015.5
20180424030224 13 344 0.0 0.0 0.00 0.00 0.00 93 1015.4
20180424024723 13 344 0.0 0.0 0.00 0.00 0.00 92 1015.5
20180424023220 13 344 0.0 0.0 0.00 0.00 0.00 92 1015.5
20180424021719 13 344 0.0 0.0 0.00 0.00 0.00 92 1015.4
20180424020218 13 344 0.0 0.0 0.00 0.00 0.00 92 1015.4
20180424014717 13 344 0.0 0.0 0.00 0.00 0.00 92 1015.5
20180424013213 14 344 0.0 0.0 0.00 0.00 0.00 92 1015.5
20180424011712 14 344 0.0 0.0 0.00 0.00 0.00 91 1015.7
20180424010210 14 344 0.0 0.0 0.00 0.00 0.00 91 1015.7
20180424004708 15 344 0.0 0.0 0.00 0.00 0.00 91 1015.6
20180424003206 15 344 0.0 0.0 0.00 0.00 0.00 91 1015.7
20180424001706 15 344 0.0 0.0 0.00 0.00 0.00 91 1015.7
20180424000207 15 345 0.0 0.0 0.00 0.00 0.00 91 1015.7
20180423234706 15 345 0.0 0.0 0.00 0.00 0.00 91 1015.6
20180423233202 15 315 0.0 0.0 0.00 0.00 0.00 91 1015.6
20180423231702 15 329 0.0 0.0 0.00 0.00 0.00 91 1015.8
20180423230157 15 331 0.0 0.0 0.00 0.00 0.00 91 1015.8
20180423224656 15 335 0.0 0.0 0.00 0.00 0.00 90 1015.8
20180423223156 15 348 0.0 0.0 0.00 0.00 0.00 90 1015.9
20180423221655 15 329 0.0 0.0 0.00 0.00 0.00 90 1016.0
20180423220158 15 317 0.0 0.0 0.00 0.00 0.00 90 1016.0
20180423214656 15 340 0.0 0.0 0.00 0.00 0.00 90 1016.1
20180423213153 15 331 0.0 0.0 0.00 0.00 0.00 90 1016.1
20180423211653 16 331 0.0 12.9 0.00 0.00 0.00 90 1016.0
20180423210153 16 313 0.0 16.1 0.00 0.00 0.00 90 1016.0
20180423204653 16 325 0.0 0.0 0.00 0.00 0.00 89 1015.8
20180423203154 16 321 0.0 12.9 0.00 0.00 0.00 89 1015.6
20180423201654 16 331 3.2 20.9 0.00 0.00 0.00 88 1015.4
20180423200150 16 338 0.0 16.1 0.00 0.00 0.00 88 1015.4
20180423194649 16 346 0.0 19.3 0.00 0.00 0.00 87 1015.3
20180423193149 16 323 14.5 22.5 0.00 0.00 0.00 86 1015.1
20180423191651 16 329 12.9 20.9 0.00 0.00 0.00 85 1015.0
20180423190150 17 311 12.9 24.1 0.00 0.00 0.00 84 1014.8
20180423184648 17 342 11.3 19.3 0.00 0.00 0.00 83 1014.7
20180423183152 17 320 6.4 17.7 0.00 0.00 0.00 82 1014.7
20180423181646 17 340 9.7 22.5 0.00 0.00 0.00 81 1014.7
20180423180145 17 328 12.9 24.1 0.00 0.00 0.00 80 1014.7
20180423174645 18 319 14.5 25.7 0.00 0.00 0.00 76 1014.5
20180423173145 19 313 9.7 19.3 0.00 0.00 0.00 75 1014.4
20180423171644 20 326 12.9 22.5 0.00 0.00 0.00 74 1014.3
20180423170145 21 330 16.1 27.4 0.00 0.00 0.00 70 1014.3
20180423164640 21 336 14.5 25.7 0.00 0.00 0.00 67 1014.6
20180423163139 22 333 16.1 22.5 0.00 0.00 0.00 67 1014.7
20180423161637 21 320 9.7 22.5 0.00 0.00 0.00 67 1014.7
20180423160138 21 330 14.5 22.5 0.00 0.00 0.00 72 1014.8